Time,TemperatureF,DewpointF,PressureIn,WindDirection,WindDirectionDegrees,WindSpeedMPH,WindSpeedGustMPH,Humidity,HourlyPrecipIn,Conditions,Clouds,dailyrainin,SoftwareType,DateUTC
2013-07-10 00:00:00,78.8,71.4,30.02,SSE,155,11.0,11.0,78,0.00,,,0.00,Wunderground v.1.15,2013-07-10 05:00:00,
2013-07-10 00:06:00,78.6,71.5,30.02,South,172,10.0,11.0,79,0.00,,,0.00,Wunderground v.1.15,2013-07-10 05:06:00,
2013-07-10 00:12:00,78.4,71.7,30.03,SSE,166,9.0,11.0,80,0.00,,,0.00,Wunderground v.1.15,2013-07-10 05:12:00,
2013-07-10 00:18:00,78.2,71.5,30.03,SE,129,8.0,11.0,80,0.00,,,0.00,Wunderground v.1.15,2013-07-10 05:18:00,
2013-07-10 00:24:00,78.0,71.7,30.03,SSE,156,8.0,11.0,81,0.00,,,0.00,Wunderground v.1.15,2013-07-10 05:24:00,
2013-07-10 00:30:00,77.8,71.5,30.03,SE,134,8.0,11.0,81,0.00,,,0.00,Wunderground v.1.15,2013-07-10 05:30:00,
2013-07-10 00:36:00,77.6,71.3,30.03,SSE,159,8.0,11.0,81,0.00,,,0.00,Wunderground v.1.15,2013-07-10 05:36:00,
2013-07-10 00:42:00,77.4,71.5,30.03,SW,218,8.0,11.0,82,0.00,,,0.00,Wunderground v.1.15,2013-07-10 05:42:00,
2013-07-10 00:48:00,77.3,71.7,30.03,South,176,7.0,11.0,83,0.00,,,0.00,Wunderground v.1.15,2013-07-10 05:48:00,
2013-07-10 00:54:00,77.1,71.5,30.03,SSE,159,7.0,12.0,83,0.00,,,0.00,Wunderground v.1.15,2013-07-10 05:54:00,
2013-07-10 01:00:00,76.9,71.3,30.04,South,170,7.0,7.0,83,0.00,,,0.00,Wunderground v.1.15,2013-07-10 06:00:00,
2013-07-10 01:06:00,76.9,71.7,30.04,ESE,113,6.0,11.0,84,0.00,,,0.00,Wunderground v.1.15,2013-07-10 06:06:00,
2013-07-10 01:12:00,76.8,71.6,30.04,SSE,148,7.0,11.0,84,0.00,,,0.00,Wunderground v.1.15,2013-07-10 06:12:00,
2013-07-10 01:18:00,76.7,71.5,30.04,SSE,166,7.0,11.0,84,0.00,,,0.00,Wunderground v.1.15,2013-07-10 06:18:00,
2013-07-10 01:24:00,76.6,71.4,30.03,SSW,193,7.0,11.0,84,0.00,,,0.00,Wunderground v.1.15,2013-07-10 06:24:00,
2013-07-10 01:30:00,76.4,71.6,30.03,SSE,165,7.0,7.0,85,0.00,,,0.00,Wunderground v.1.15,2013-07-10 06:30:00,
2013-07-10 01:36:00,76.3,71.5,30.04,SSE,165,8.0,11.0,85,0.00,,,0.00,Wunderground v.1.15,2013-07-10 06:36:00,
2013-07-10 01:42:00,76.0,71.5,30.03,South,191,8.0,11.0,86,0.00,,,0.00,Wunderground v.1.15,2013-07-10 06:42:00,
2013-07-10 01:48:00,75.8,71.7,30.03,SE,146,7.0,11.0,87,0.00,,,0.00,Wunderground v.1.15,2013-07-10 06:48:00,
2013-07-10 01:54:00,75.6,71.5,30.03,SSE,167,7.0,11.0,87,0.00,,,0.00,Wunderground v.1.15,2013-07-10 06:54:00,
2013-07-10 02:00:00,75.4,71.6,30.03,SSE,154,7.0,7.0,88,0.00,,,0.00,Wunderground v.1.15,2013-07-10 07:00:00,
2013-07-10 02:06:00,75.3,71.5,30.03,South,175,7.0,11.0,88,0.00,,,0.00,Wunderground v.1.15,2013-07-10 07:06:00,
2013-07-10 02:12:00,75.1,71.6,30.03,SSE,158,7.0,11.0,89,0.00,,,0.00,Wunderground v.1.15,2013-07-10 07:12:00,
2013-07-10 02:18:00,75.0,71.5,30.03,SSE,150,7.0,11.0,89,0.00,,,0.00,Wunderground v.1.15,2013-07-10 07:18:00,
2013-07-10 02:24:00,74.8,71.3,30.03,SSE,162,7.0,11.0,89,0.00,,,0.00,Wunderground v.1.15,2013-07-10 07:24:00,
2013-07-10 02:30:00,74.6,71.5,30.03,SSE,156,6.0,6.0,90,0.00,,,0.00,Wunderground v.1.15,2013-07-10 07:30:00,
2013-07-10 02:36:00,74.5,71.4,30.03,South,184,6.0,11.0,90,0.00,,,0.00,Wunderground v.1.15,2013-07-10 07:36:00,
2013-07-10 02:42:00,74.4,71.6,30.02,South,191,7.0,11.0,91,0.00,,,0.00,Wunderground v.1.15,2013-07-10 07:42:00,
2013-07-10 02:48:00,74.2,71.4,30.02,SE,141,7.0,11.0,91,0.00,,,0.00,Wunderground v.1.15,2013-07-10 07:48:00,
2013-07-10 02:54:00,74.0,71.2,30.02,SE,128,6.0,11.0,91,0.00,,,0.00,Wunderground v.1.15,2013-07-10 07:54:00,
2013-07-10 03:00:00,73.8,71.3,30.02,SSE,162,6.0,6.0,92,0.00,,,0.00,Wunderground v.1.15,2013-07-10 08:00:00,
2013-07-10 03:06:00,73.7,71.2,30.02,SSE,153,6.0,11.0,92,0.00,,,0.00,Wunderground v.1.15,2013-07-10 08:06:00,
2013-07-10 03:12:00,73.6,71.1,30.03,SE,145,7.0,11.0,92,0.00,,,0.00,Wunderground v.1.15,2013-07-10 08:12:00,
2013-07-10 03:18:00,73.4,71.3,30.03,ESE,122,6.0,11.0,93,0.00,,,0.00,Wunderground v.1.15,2013-07-10 08:18:00,
2013-07-10 03:24:00,73.3,71.2,30.03,SSE,167,6.0,11.0,93,0.00,,,0.00,Wunderground v.1.15,2013-07-10 08:24:00,
2013-07-10 03:30:00,73.1,71.0,30.03,South,170,7.0,7.0,93,0.00,,,0.00,Wunderground v.1.15,2013-07-10 08:30:00,
2013-07-10 03:36:00,73.0,71.2,30.03,SSE,167,7.0,11.0,94,0.00,,,0.00,Wunderground v.1.15,2013-07-10 08:36:00,
2013-07-10 03:48:00,72.7,70.9,30.02,SSE,150,7.0,11.0,94,0.00,,,0.00,Wunderground v.1.15,2013-07-10 08:48:00,
2013-07-10 03:54:00,72.6,71.1,30.02,SE,141,7.0,11.0,95,0.00,,,0.00,Wunderground v.1.15,2013-07-10 08:54:00,
2013-07-10 04:00:00,72.5,71.0,30.02,SE,146,6.0,11.0,95,0.00,,,0.00,Wunderground v.1.15,2013-07-10 09:00:00,
2013-07-10 04:06:00,72.4,70.9,30.02,SE,145,6.0,11.0,95,0.00,,,0.00,Wunderground v.1.15,2013-07-10 09:06:00,
2013-07-10 04:12:00,72.3,70.8,30.02,SE,135,5.0,11.0,95,0.00,,,0.00,Wunderground v.1.15,2013-07-10 09:12:00,
2013-07-10 04:18:00,72.2,70.7,30.02,SSW,212,6.0,11.0,95,0.00,,,0.00,Wunderground v.1.15,2013-07-10 09:18:00,
2013-07-10 04:24:00,72.1,70.6,30.02,South,172,6.0,11.0,95,0.00,,,0.00,Wunderground v.1.15,2013-07-10 09:24:00,
2013-07-10 04:30:00,72.1,70.9,30.02,SSE,163,6.0,11.0,96,0.00,,,0.00,Wunderground v.1.15,2013-07-10 09:30:00,
2013-07-10 04:36:00,72.0,70.8,30.02,SSE,158,7.0,11.0,96,0.00,,,0.00,Wunderground v.1.15,2013-07-10 09:36:00,
2013-07-10 04:42:00,71.9,70.7,30.02,SSW,192,7.0,11.0,96,0.00,,,0.00,Wunderground v.1.15,2013-07-10 09:42:00,
2013-07-10 04:48:00,71.9,70.7,30.03,SSE,148,6.0,11.0,96,0.00,,,0.00,Wunderground v.1.15,2013-07-10 09:48:00,
2013-07-10 04:54:00,71.8,70.6,30.03,SE,138,6.0,11.0,96,0.00,,,0.00,Wunderground v.1.15,2013-07-10 09:54:00,
2013-07-10 05:00:00,71.8,70.6,30.03,South,170,6.0,6.0,96,0.00,,,0.00,Wunderground v.1.15,2013-07-10 10:00:00,
2013-07-10 05:06:00,71.7,70.5,30.03,South,190,5.0,11.0,96,0.00,,,0.00,Wunderground v.1.15,2013-07-10 10:06:00,
2013-07-10 05:12:00,71.6,70.4,30.03,SSW,195,5.0,11.0,96,0.00,,,0.00,Wunderground v.1.15,2013-07-10 10:12:00,
2013-07-10 05:18:00,71.4,70.2,30.03,SE,134,4.0,11.0,96,0.00,,,0.00,Wunderground v.1.15,2013-07-10 10:18:00,
2013-07-10 05:24:00,71.4,70.5,30.03,SE,130,4.0,11.0,97,0.00,,,0.00,Wunderground v.1.15,2013-07-10 10:24:00,
2013-07-10 05:30:00,71.3,70.4,30.03,SSE,148,5.0,5.0,97,0.00,,,0.00,Wunderground v.1.15,2013-07-10 10:30:00,
2013-07-10 05:36:00,71.3,70.4,30.03,SSE,159,5.0,11.0,97,0.00,,,0.00,Wunderground v.1.15,2013-07-10 10:36:00,
2013-07-10 05:42:00,71.3,70.4,30.03,SE,139,4.0,11.0,97,0.00,,,0.00,Wunderground v.1.15,2013-07-10 10:42:00,
2013-07-10 05:48:00,71.3,70.4,30.04,SSE,162,4.0,11.0,97,0.00,,,0.00,Wunderground v.1.15,2013-07-10 10:48:00,
2013-07-10 05:54:00,71.4,70.5,30.04,SE,141,4.0,11.0,97,0.00,,,0.00,Wunderground v.1.15,2013-07-10 10:54:00,
2013-07-10 06:00:00,71.4,70.5,30.04,SE,134,4.0,4.0,97,0.00,,,0.00,Wunderground v.1.15,2013-07-10 11:00:00,
2013-07-10 06:06:00,71.5,70.6,30.04,SSE,154,4.0,7.0,97,0.00,,,0.00,Wunderground v.1.15,2013-07-10 11:06:00,
2013-07-10 06:12:00,71.5,70.6,30.04,South,177,5.0,6.0,97,0.00,,,0.00,Wunderground v.1.15,2013-07-10 11:12:00,
2013-07-10 06:18:00,71.4,70.5,30.04,SSE,166,5.0,6.0,97,0.00,,,0.00,Wunderground v.1.15,2013-07-10 11:18:00,
2013-07-10 06:24:00,71.4,70.5,30.04,SE,138,5.0,7.0,97,0.00,,,0.00,Wunderground v.1.15,2013-07-10 11:24:00,
2013-07-10 06:30:00,71.3,70.4,30.04,SSE,150,5.0,5.0,97,0.00,,,0.00,Wunderground v.1.15,2013-07-10 11:30:00,
2013-07-10 06:36:00,71.2,70.3,30.05,South,176,4.0,5.0,97,0.00,,,0.00,Wunderground v.1.15,2013-07-10 11:36:00,
2013-07-10 06:42:00,71.2,70.3,30.04,South,187,4.0,5.0,97,0.00,,,0.00,Wunderground v.1.15,2013-07-10 11:42:00,
2013-07-10 06:48:00,71.2,70.3,30.04,South,176,5.0,6.0,97,0.00,,,0.00,Wunderground v.1.15,2013-07-10 11:48:00,
2013-07-10 06:54:00,71.2,70.3,30.04,SSW,194,5.0,7.0,97,0.00,,,0.00,Wunderground v.1.15,2013-07-10 11:54:00,
2013-07-10 07:00:00,71.2,70.3,30.04,SSE,162,5.0,5.0,97,0.00,,,0.00,Wunderground v.1.15,2013-07-10 12:00:00,
2013-07-10 07:06:00,71.2,70.3,30.04,South,170,4.0,7.0,97,0.00,,,0.00,Wunderground v.1.15,2013-07-10 12:06:00,
2013-07-10 07:12:00,71.2,70.3,30.04,SSE,162,6.0,7.0,97,0.00,,,0.00,Wunderground v.1.15,2013-07-10 12:12:00,
2013-07-10 07:18:00,71.3,70.1,30.05,SSW,195,6.0,8.0,96,0.00,,,0.00,Wunderground v.1.15,2013-07-10 12:18:00,
2013-07-10 07:24:00,71.5,70.3,30.04,South,180,6.0,9.0,96,0.00,,,0.00,Wunderground v.1.15,2013-07-10 12:24:00,
2013-07-10 07:30:00,71.8,70.6,30.04,SSE,152,6.0,6.0,96,0.00,,,0.00,Wunderground v.1.15,2013-07-10 12:30:00,
2013-07-10 07:36:00,72.1,70.6,30.05,South,183,6.0,11.0,95,0.00,,,0.00,Wunderground v.1.15,2013-07-10 12:36:00,
2013-07-10 07:42:00,72.4,70.9,30.05,South,179,6.0,6.0,95,0.00,,,0.00,Wunderground v.1.15,2013-07-10 12:42:00,
2013-07-10 07:48:00,72.7,70.9,30.06,SSE,156,6.0,6.0,94,0.00,,,0.00,Wunderground v.1.15,2013-07-10 12:48:00,
2013-07-10 07:54:00,73.0,70.9,30.05,South,184,5.0,8.0,93,0.00,,,0.00,Wunderground v.1.15,2013-07-10 12:54:00,
2013-07-10 08:00:00,73.1,71.0,30.05,SSW,200,6.0,8.0,93,0.00,,,0.00,Wunderground v.1.15,2013-07-10 13:00:00,
2013-07-10 08:06:00,73.1,71.0,30.05,South,188,8.0,11.0,93,0.00,,,0.00,Wunderground v.1.15,2013-07-10 13:06:00,
2013-07-10 08:12:00,73.1,71.0,30.05,South,191,8.0,9.0,93,0.00,,,0.00,Wunderground v.1.15,2013-07-10 13:12:00,
2013-07-10 08:18:00,73.3,70.8,30.06,South,173,8.0,14.0,92,0.00,,,0.00,Wunderground v.1.15,2013-07-10 13:18:00,
2013-07-10 08:24:00,73.4,70.9,30.06,SSE,167,9.0,11.0,92,0.00,,,0.00,Wunderground v.1.15,2013-07-10 13:24:00,
2013-07-10 08:30:00,73.7,70.9,30.05,SSW,195,8.0,8.0,91,0.00,,,0.00,Wunderground v.1.15,2013-07-10 13:30:00,
2013-07-10 08:36:00,74.5,71.4,30.05,South,170,7.0,12.0,90,0.00,,,0.00,Wunderground v.1.15,2013-07-10 13:36:00,
2013-07-10 08:42:00,75.1,71.6,30.05,SSE,163,6.0,12.0,89,0.00,,,0.00,Wunderground v.1.15,2013-07-10 13:42:00,
2013-07-10 08:48:00,75.5,71.7,30.06,SE,146,7.0,12.0,88,0.00,,,0.00,Wunderground v.1.15,2013-07-10 13:48:00,
2013-07-10 08:54:00,75.5,71.7,30.06,South,180,8.0,12.0,88,0.00,,,0.00,Wunderground v.1.15,2013-07-10 13:54:00,
2013-07-10 09:00:00,75.9,71.8,30.06,South,188,8.0,12.0,87,0.00,,,0.00,Wunderground v.1.15,2013-07-10 14:00:00,
2013-07-10 09:06:00,75.6,71.1,30.06,SW,217,9.0,12.0,86,0.00,,,0.00,Wunderground v.1.15,2013-07-10 14:06:00,
2013-07-10 09:12:00,75.9,71.8,30.07,SSW,201,7.0,12.0,87,0.00,,,0.00,Wunderground v.1.15,2013-07-10 14:12:00,
2013-07-10 09:18:00,77.2,72.3,30.07,SSW,195,6.0,12.0,85,0.00,,,0.00,Wunderground v.1.15,2013-07-10 14:18:00,
2013-07-10 09:24:00,78.3,72.7,30.07,SSW,203,6.0,12.0,83,0.00,,,0.00,Wunderground v.1.15,2013-07-10 14:24:00,
2013-07-10 09:30:00,77.8,71.9,30.06,South,173,6.0,12.0,82,0.00,,,0.00,Wunderground v.1.15,2013-07-10 14:30:00,
2013-07-10 09:36:00,77.2,71.3,30.06,South,190,7.0,12.0,82,0.00,,,0.00,Wunderground v.1.15,2013-07-10 14:36:00,
2013-07-10 09:42:00,77.0,71.4,30.06,SW,222,9.0,9.0,83,0.00,,,0.00,Wunderground v.1.15,2013-07-10 14:42:00,
2013-07-10 09:48:00,78.0,71.7,30.06,South,188,8.0,12.0,81,0.00,,,0.00,Wunderground v.1.15,2013-07-10 14:48:00,
2013-07-10 09:54:00,78.6,71.9,30.06,SW,219,8.0,12.0,80,0.00,,,0.00,Wunderground v.1.15,2013-07-10 14:54:00,
2013-07-10 10:00:00,79.1,71.6,30.06,SSW,197,8.0,8.0,78,0.00,,,0.00,Wunderground v.1.15,2013-07-10 15:00:00,
2013-07-10 10:06:00,79.6,71.8,30.06,SSE,162,8.0,12.0,77,0.00,,,0.00,Wunderground v.1.15,2013-07-10 15:06:00,
2013-07-10 10:12:00,79.7,71.8,30.06,South,180,8.0,9.0,77,0.00,,,0.00,Wunderground v.1.15,2013-07-10 15:12:00,
2013-07-10 10:18:00,79.8,71.9,30.06,SSW,212,8.0,12.0,77,0.00,,,0.00,Wunderground v.1.15,2013-07-10 15:18:00,
2013-07-10 10:24:00,80.3,71.6,30.05,SE,139,8.0,13.0,75,0.00,,,0.00,Wunderground v.1.15,2013-07-10 15:24:00,
2013-07-10 10:30:00,80.5,71.8,30.05,SSE,162,8.0,8.0,75,0.00,,,0.00,Wunderground v.1.15,2013-07-10 15:30:00,
2013-07-10 10:36:00,80.6,71.9,30.05,SSW,197,7.0,12.0,75,0.00,,,0.00,Wunderground v.1.15,2013-07-10 15:36:00,
2013-07-10 10:42:00,80.6,71.5,30.05,South,186,7.0,12.0,74,0.00,,,0.00,Wunderground v.1.15,2013-07-10 15:42:00,
2013-07-10 10:48:00,81.1,72.0,30.05,SSW,198,8.0,12.0,74,0.00,,,0.00,Wunderground v.1.15,2013-07-10 15:48:00,
2013-07-10 10:54:00,81.6,72.1,30.05,SW,219,8.0,10.0,73,0.00,,,0.00,Wunderground v.1.15,2013-07-10 15:54:00,
2013-07-10 11:00:00,81.5,71.2,30.05,South,176,8.0,12.0,71,0.00,,,0.00,Wunderground v.1.15,2013-07-10 16:00:00,
2013-07-10 11:06:00,81.7,71.4,30.05,SSW,211,8.0,12.0,71,0.00,,,0.00,Wunderground v.1.15,2013-07-10 16:06:00,
2013-07-10 11:12:00,82.1,71.8,30.05,SW,222,7.0,12.0,71,0.00,,,0.00,Wunderground v.1.15,2013-07-10 16:12:00,
2013-07-10 11:18:00,82.4,71.2,30.04,SW,233,8.0,12.0,69,0.00,,,0.00,Wunderground v.1.15,2013-07-10 16:18:00,
2013-07-10 11:24:00,82.6,71.4,30.04,South,187,8.0,12.0,69,0.00,,,0.00,Wunderground v.1.15,2013-07-10 16:24:00,
2013-07-10 11:30:00,82.8,71.2,30.04,SSW,210,7.0,12.0,68,0.00,,,0.00,Wunderground v.1.15,2013-07-10 16:30:00,
2013-07-10 11:36:00,83.0,71.3,30.04,SE,125,8.0,12.0,68,0.00,,,0.00,Wunderground v.1.15,2013-07-10 16:36:00,
2013-07-10 11:42:00,83.2,71.5,30.04,South,169,6.0,12.0,68,0.00,,,0.00,Wunderground v.1.15,2013-07-10 16:42:00,
2013-07-10 11:48:00,84.2,71.6,30.05,SW,221,5.0,12.0,66,0.00,,,0.00,Wunderground v.1.15,2013-07-10 16:48:00,
2013-07-10 11:54:00,84.2,71.6,30.04,SSW,197,6.0,12.0,66,0.00,,,0.00,Wunderground v.1.15,2013-07-10 16:54:00,
2013-07-10 12:00:00,84.7,71.2,30.05,South,188,7.0,12.0,64,0.00,,,0.00,Wunderground v.1.15,2013-07-10 17:00:00,
2013-07-10 12:06:00,85.0,71.9,30.04,ESE,123,6.0,12.0,65,0.00,,,0.00,Wunderground v.1.15,2013-07-10 17:06:00,
2013-07-10 12:12:00,84.7,71.2,30.04,South,190,5.0,12.0,64,0.00,,,0.00,Wunderground v.1.15,2013-07-10 17:12:00,
2013-07-10 12:18:00,85.0,71.5,30.04,WSW,254,6.0,12.0,64,0.00,,,0.00,Wunderground v.1.15,2013-07-10 17:18:00,
2013-07-10 12:24:00,85.2,71.2,30.04,SSW,198,6.0,12.0,63,0.00,,,0.00,Wunderground v.1.15,2013-07-10 17:24:00,
2013-07-10 12:30:00,85.3,70.8,30.03,SSW,197,6.0,6.0,62,0.00,,,0.00,Wunderground v.1.15,2013-07-10 17:30:00,
2013-07-10 12:36:00,85.8,71.3,30.03,SW,218,6.0,12.0,62,0.00,,,0.00,Wunderground v.1.15,2013-07-10 17:36:00,
2013-07-10 12:42:00,85.7,69.7,30.03,WSW,242,6.0,12.0,59,0.00,,,0.00,Wunderground v.1.15,2013-07-10 17:42:00,
2013-07-10 12:48:00,86.4,71.4,30.03,South,187,5.0,12.0,61,0.00,,,0.00,Wunderground v.1.15,2013-07-10 17:48:00,
2013-07-10 12:54:00,86.5,71.0,30.03,WSW,245,5.0,12.0,60,0.00,,,0.00,Wunderground v.1.15,2013-07-10 17:54:00,
2013-07-10 13:00:00,87.0,70.4,30.03,South,190,4.0,12.0,58,0.00,,,0.00,Wunderground v.1.15,2013-07-10 18:00:00,
2013-07-10 13:06:00,86.8,70.2,30.02,SE,133,6.0,12.0,58,0.00,,,0.00,Wunderground v.1.15,2013-07-10 18:06:00,
2013-07-10 13:12:00,87.6,71.0,30.02,SE,129,5.0,7.0,58,0.00,,,0.00,Wunderground v.1.15,2013-07-10 18:12:00,
2013-07-10 13:18:00,87.3,69.7,30.02,SE,143,7.0,12.0,56,0.00,,,0.00,Wunderground v.1.15,2013-07-10 18:18:00,
2013-07-10 13:24:00,87.5,69.9,30.01,SE,141,5.0,12.0,56,0.00,,,0.00,Wunderground v.1.15,2013-07-10 18:24:00,
2013-07-10 13:30:00,88.2,71.0,30.01,South,188,4.0,12.0,57,0.00,,,0.00,Wunderground v.1.15,2013-07-10 18:30:00,
2013-07-10 13:36:00,88.3,71.1,30.01,South,188,5.0,12.0,57,0.00,,,0.00,Wunderground v.1.15,2013-07-10 18:36:00,
2013-07-10 13:42:00,88.4,70.7,30.00,SE,138,6.0,12.0,56,0.00,,,0.00,Wunderground v.1.15,2013-07-10 18:42:00,
2013-07-10 13:50:00,88.6,71.9,30.00,SSW,204,6.0,12.0,58,0.00,,,0.00,Wunderground v.1.15,2013-07-10 18:50:00,
2013-07-10 14:02:00,88.8,70.0,30.00,SE,125,8.0,12.0,54,0.00,,,0.00,Wunderground v.1.15,2013-07-10 19:02:00,
2013-07-10 14:08:00,88.9,68.4,29.99,ESE,120,7.0,12.0,51,0.00,,,0.00,Wunderground v.1.15,2013-07-10 19:08:00,
2013-07-10 14:14:00,88.9,69.6,29.99,SSW,205,6.0,12.0,53,0.00,,,0.00,Wunderground v.1.15,2013-07-10 19:14:00,
2013-07-10 14:20:00,89.4,70.0,29.99,SSE,157,5.0,12.0,53,0.00,,,0.00,Wunderground v.1.15,2013-07-10 19:20:00,
2013-07-10 14:26:00,89.4,68.9,29.98,SE,136,6.0,12.0,51,0.00,,,0.00,Wunderground v.1.15,2013-07-10 19:26:00,
2013-07-10 14:32:00,89.7,70.3,29.99,SSE,165,5.0,12.0,53,0.00,,,0.00,Wunderground v.1.15,2013-07-10 19:32:00,
2013-07-10 14:38:00,89.5,69.5,29.99,SSW,210,6.0,12.0,52,0.00,,,0.00,Wunderground v.1.15,2013-07-10 19:38:00,
2013-07-10 14:44:00,89.8,69.8,29.99,SSW,212,6.0,16.0,52,0.00,,,0.00,Wunderground v.1.15,2013-07-10 19:44:00,
2013-07-10 14:50:00,89.7,68.6,29.98,SSW,201,9.0,9.0,50,0.00,,,0.00,Wunderground v.1.15,2013-07-10 19:50:00,
2013-07-10 14:56:00,90.0,70.0,29.97,South,177,6.0,12.0,52,0.00,,,0.00,Wunderground v.1.15,2013-07-10 19:56:00,
2013-07-10 15:02:00,90.5,68.7,29.98,SSE,158,7.0,12.0,49,0.00,,,0.00,Wunderground v.1.15,2013-07-10 20:02:00,
2013-07-10 15:08:00,90.6,68.8,29.97,South,172,7.0,12.0,49,0.00,,,0.00,Wunderground v.1.15,2013-07-10 20:08:00,
2013-07-10 15:14:00,90.4,68.0,29.97,SE,138,6.0,12.0,48,0.00,,,0.00,Wunderground v.1.15,2013-07-10 20:14:00,
2013-07-10 15:20:00,90.4,68.0,29.97,SW,217,7.0,7.0,48,0.00,,,0.00,Wunderground v.1.15,2013-07-10 20:20:00,
2013-07-10 15:26:00,90.9,67.3,29.97,SSE,149,4.0,12.0,46,0.00,,,0.00,Wunderground v.1.15,2013-07-10 20:26:00,
2013-07-10 15:32:00,91.6,69.1,29.97,SSW,208,3.0,7.0,48,0.00,,,0.00,Wunderground v.1.15,2013-07-10 20:32:00,
2013-07-10 15:38:00,91.0,68.0,29.96,SSW,193,7.0,12.0,47,0.00,,,0.00,Wunderground v.1.15,2013-07-10 20:38:00,
2013-07-10 15:44:00,91.1,68.7,29.96,SSW,200,7.0,12.0,48,0.00,,,0.00,Wunderground v.1.15,2013-07-10 20:44:00,
2013-07-10 15:50:00,91.6,67.9,29.96,SSE,148,7.0,12.0,46,0.00,,,0.00,Wunderground v.1.15,2013-07-10 20:50:00,
2013-07-10 15:56:00,91.3,68.2,29.96,SSE,166,7.0,12.0,47,0.00,,,0.00,Wunderground v.1.15,2013-07-10 20:56:00,
2013-07-10 16:02:00,92.0,66.3,29.95,SW,214,6.0,12.0,43,0.00,,,0.00,Wunderground v.1.15,2013-07-10 21:02:00,
2013-07-10 16:08:00,92.0,65.6,29.95,SSE,158,7.0,12.0,42,0.00,,,0.00,Wunderground v.1.15,2013-07-10 21:08:00,
2013-07-10 16:14:00,92.3,65.2,29.95,SE,136,6.0,12.0,41,0.00,,,0.00,Wunderground v.1.15,2013-07-10 21:14:00,
2013-07-10 16:20:00,92.7,65.6,29.95,South,175,6.0,6.0,41,0.00,,,0.00,Wunderground v.1.15,2013-07-10 21:20:00,
2013-07-10 16:26:00,92.6,65.5,29.95,SSE,158,6.0,12.0,41,0.00,,,0.00,Wunderground v.1.15,2013-07-10 21:26:00,
2013-07-10 16:32:00,92.2,65.8,29.95,SSE,155,8.0,8.0,42,0.00,,,0.00,Wunderground v.1.15,2013-07-10 21:32:00,
2013-07-10 16:38:00,92.1,66.4,29.95,South,176,8.0,13.0,43,0.00,,,0.00,Wunderground v.1.15,2013-07-10 21:38:00,
2013-07-10 16:44:00,92.2,67.1,29.94,SW,232,7.0,12.0,44,0.00,,,0.00,Wunderground v.1.15,2013-07-10 21:44:00,
2013-07-10 16:50:00,92.5,66.7,29.94,SSW,203,6.0,12.0,43,0.00,,,0.00,Wunderground v.1.15,2013-07-10 21:50:00,
2013-07-10 16:56:00,92.1,65.7,29.94,South,191,8.0,12.0,42,0.00,,,0.00,Wunderground v.1.15,2013-07-10 21:56:00,
2013-07-10 17:00:00,92.1,65.7,29.93,SSE,166,9.0,9.0,42,0.00,,,0.00,Wunderground v.1.15,2013-07-10 22:00:00,
2013-07-10 17:06:00,92.2,66.5,29.93,South,179,6.0,12.0,43,0.00,,,0.00,Wunderground v.1.15,2013-07-10 22:06:00,
2013-07-10 17:12:00,92.4,66.7,29.94,South,181,6.0,12.0,43,0.00,,,0.00,Wunderground v.1.15,2013-07-10 22:12:00,
2013-07-10 17:18:00,92.5,66.7,29.93,SE,127,7.0,12.0,43,0.00,,,0.00,Wunderground v.1.15,2013-07-10 22:18:00,
2013-07-10 17:24:00,92.5,66.7,29.93,SE,141,7.0,12.0,43,0.00,,,0.00,Wunderground v.1.15,2013-07-10 22:24:00,
2013-07-10 17:30:00,91.8,67.4,29.93,ESE,110,7.0,12.0,45,0.00,,,0.00,Wunderground v.1.15,2013-07-10 22:30:00,
2013-07-10 17:36:00,91.0,67.3,29.93,SW,224,5.0,12.0,46,0.00,,,0.00,Wunderground v.1.15,2013-07-10 22:36:00,
2013-07-10 17:42:00,91.6,67.3,29.92,SSW,195,5.0,12.0,45,0.00,,,0.00,Wunderground v.1.15,2013-07-10 22:42:00,
2013-07-10 17:48:00,91.9,67.5,29.92,South,176,7.0,12.0,45,0.00,,,0.00,Wunderground v.1.15,2013-07-10 22:48:00,
2013-07-10 17:54:00,92.0,68.3,29.92,South,170,7.0,12.0,46,0.00,,,0.00,Wunderground v.1.15,2013-07-10 22:54:00,
2013-07-10 18:00:00,91.5,67.2,29.92,SSW,195,8.0,12.0,45,0.00,,,0.00,Wunderground v.1.15,2013-07-10 23:00:00,
2013-07-10 18:06:00,91.2,67.5,29.91,South,181,8.0,12.0,46,0.00,,,0.00,Wunderground v.1.15,2013-07-10 23:06:00,
2013-07-10 18:12:00,91.1,67.4,29.91,SE,141,7.0,12.0,46,0.00,,,0.00,Wunderground v.1.15,2013-07-10 23:12:00,
2013-07-10 18:18:00,90.9,67.3,29.91,SSE,155,7.0,12.0,46,0.00,,,0.00,Wunderground v.1.15,2013-07-10 23:18:00,
2013-07-10 18:24:00,90.9,66.0,29.91,ESE,102,6.0,12.0,44,0.00,,,0.00,Wunderground v.1.15,2013-07-10 23:24:00,
2013-07-10 18:30:00,91.1,66.2,29.91,SSE,159,5.0,12.0,44,0.00,,,0.00,Wunderground v.1.15,2013-07-10 23:30:00,
2013-07-10 18:36:00,91.1,66.2,29.90,South,174,5.0,12.0,44,0.00,,,0.00,Wunderground v.1.15,2013-07-10 23:36:00,
2013-07-10 18:42:00,90.9,65.3,29.90,South,172,6.0,12.0,43,0.00,,,0.00,Wunderground v.1.15,2013-07-10 23:42:00,
2013-07-10 18:48:00,91.0,64.7,29.90,SSW,192,6.0,12.0,42,0.00,,,0.00,Wunderground v.1.15,2013-07-10 23:48:00,
2013-07-10 18:54:00,90.9,64.6,29.90,SSW,194,6.0,12.0,42,0.00,,,0.00,Wunderground v.1.15,2013-07-10 23:54:00,
2013-07-10 19:00:00,90.8,65.2,29.90,SSE,153,6.0,6.0,43,0.00,,,0.00,Wunderground v.1.15,2013-07-11 00:00:00,
2013-07-10 19:06:00,90.7,65.1,29.90,SSE,156,5.0,12.0,43,0.00,,,0.00,Wunderground v.1.15,2013-07-11 00:06:00,
2013-07-10 19:12:00,90.7,65.1,29.89,SSE,159,5.0,12.0,43,0.00,,,0.00,Wunderground v.1.15,2013-07-11 00:12:00,
2013-07-10 19:18:00,90.6,65.7,29.89,South,177,5.0,12.0,44,0.00,,,0.00,Wunderground v.1.15,2013-07-11 00:18:00,
2013-07-10 19:24:00,90.6,65.7,29.89,South,172,4.0,12.0,44,0.00,,,0.00,Wunderground v.1.15,2013-07-11 00:24:00,
2013-07-10 19:30:00,90.3,66.1,29.89,SSE,166,5.0,5.0,45,0.00,,,0.00,Wunderground v.1.15,2013-07-11 00:30:00,
2013-07-10 19:36:00,90.2,66.0,29.89,South,184,4.0,12.0,45,0.00,,,0.00,Wunderground v.1.15,2013-07-11 00:36:00,
2013-07-10 19:42:00,90.0,66.4,29.90,South,184,4.0,12.0,46,0.00,,,0.00,Wunderground v.1.15,2013-07-11 00:42:00,
2013-07-10 19:48:00,89.7,66.8,29.90,South,170,5.0,12.0,47,0.00,,,0.00,Wunderground v.1.15,2013-07-11 00:48:00,
2013-07-10 19:54:00,89.4,66.5,29.90,SSE,158,4.0,12.0,47,0.00,,,0.00,Wunderground v.1.15,2013-07-11 00:54:00,
2013-07-10 20:00:00,89.2,66.9,29.90,SE,129,3.0,3.0,48,0.00,,,0.00,Wunderground v.1.15,2013-07-11 01:00:00,
2013-07-10 20:06:00,88.7,67.1,29.90,SSE,165,2.0,12.0,49,0.00,,,0.00,Wunderground v.1.15,2013-07-11 01:06:00,
2013-07-10 20:12:00,88.1,66.5,29.90,SSE,165,3.0,12.0,49,0.00,,,0.00,Wunderground v.1.15,2013-07-11 01:12:00,
2013-07-10 20:18:00,87.8,66.8,29.90,SSE,167,3.0,12.0,50,0.00,,,0.00,Wunderground v.1.15,2013-07-11 01:18:00,
2013-07-10 20:24:00,87.3,67.0,29.90,SE,136,2.0,12.0,51,0.00,,,0.00,Wunderground v.1.15,2013-07-11 01:24:00,
2013-07-10 20:30:00,86.8,66.5,29.90,SE,127,2.0,2.0,51,0.00,,,0.00,Wunderground v.1.15,2013-07-11 01:30:00,
2013-07-10 20:36:00,86.2,66.5,29.91,SSE,153,1.0,12.0,52,0.00,,,0.00,Wunderground v.1.15,2013-07-11 01:36:00,
2013-07-10 20:42:00,85.6,67.0,29.90,SSE,153,1.0,12.0,54,0.00,,,0.00,Wunderground v.1.15,2013-07-11 01:42:00,
2013-07-10 20:48:00,85.0,67.0,29.90,SSE,153,1.0,12.0,55,0.00,,,0.00,Wunderground v.1.15,2013-07-11 01:48:00,
2013-07-10 20:54:00,84.5,67.1,29.91,SSE,153,0.0,12.0,56,0.00,,,0.00,Wunderground v.1.15,2013-07-11 01:54:00,
2013-07-10 21:00:00,84.2,67.3,29.90,SSE,150,1.0,12.0,57,0.00,,,0.00,Wunderground v.1.15,2013-07-11 02:00:00,
2013-07-10 21:06:00,83.9,67.0,29.90,SE,138,1.0,12.0,57,0.00,,,0.00,Wunderground v.1.15,2013-07-11 02:06:00,
2013-07-10 21:12:00,83.9,67.0,29.90,SE,139,1.0,12.0,57,0.00,,,0.00,Wunderground v.1.15,2013-07-11 02:12:00,
2013-07-10 21:18:00,84.3,67.4,29.90,SE,129,4.0,12.0,57,0.00,,,0.00,Wunderground v.1.15,2013-07-11 02:18:00,
2013-07-10 21:24:00,84.0,67.6,29.91,SE,129,7.0,12.0,58,0.00,,,0.00,Wunderground v.1.15,2013-07-11 02:24:00,
2013-07-10 21:30:00,83.7,67.8,29.91,SE,127,5.0,12.0,59,0.00,,,0.00,Wunderground v.1.15,2013-07-11 02:30:00,
2013-07-10 21:36:00,83.4,68.5,29.91,SSW,198,5.0,12.0,61,0.00,,,0.00,Wunderground v.1.15,2013-07-11 02:36:00,
2013-07-10 21:42:00,83.3,68.9,29.91,SSE,159,6.0,12.0,62,0.00,,,0.00,Wunderground v.1.15,2013-07-11 02:42:00,
2013-07-10 21:48:00,83.0,69.1,29.91,SE,143,6.0,12.0,63,0.00,,,0.00,Wunderground v.1.15,2013-07-11 02:48:00,
2013-07-10 21:54:00,82.7,69.3,29.91,SSE,165,5.0,12.0,64,0.00,,,0.00,Wunderground v.1.15,2013-07-11 02:54:00,
2013-07-10 22:00:00,82.3,69.8,29.91,SE,145,4.0,12.0,66,0.00,,,0.00,Wunderground v.1.15,2013-07-11 03:00:00,
2013-07-10 22:06:00,82.1,69.6,29.91,SE,138,5.0,12.0,66,0.00,,,0.00,Wunderground v.1.15,2013-07-11 03:06:00,
2013-07-10 22:12:00,81.9,69.9,29.92,SSE,162,5.0,12.0,67,0.00,,,0.00,Wunderground v.1.15,2013-07-11 03:12:00,
2013-07-10 22:18:00,81.6,70.0,29.92,SSE,158,4.0,12.0,68,0.00,,,0.00,Wunderground v.1.15,2013-07-11 03:18:00,
2013-07-10 22:24:00,81.5,70.3,29.93,SE,145,4.0,12.0,69,0.00,,,0.00,Wunderground v.1.15,2013-07-11 03:24:00,
2013-07-10 22:30:00,81.2,70.1,29.93,SSE,158,4.0,12.0,69,0.00,,,0.00,Wunderground v.1.15,2013-07-11 03:30:00,
2013-07-10 22:38:00,81.1,70.4,29.94,South,191,5.0,12.0,70,0.00,,,0.00,Wunderground v.1.15,2013-07-11 03:38:00,
2013-07-10 22:44:00,81.1,70.4,29.94,SE,131,6.0,12.0,70,0.00,,,0.00,Wunderground v.1.15,2013-07-11 03:44:00,
2013-07-10 22:50:00,81.0,70.3,29.94,SSE,150,6.0,12.0,70,0.00,,,0.00,Wunderground v.1.15,2013-07-11 03:50:00,
2013-07-10 22:56:00,81.0,70.7,29.94,SSE,153,6.0,12.0,71,0.00,,,0.00,Wunderground v.1.15,2013-07-11 03:56:00,
2013-07-10 23:02:00,80.8,70.5,29.94,SSE,158,6.0,12.0,71,0.00,,,0.00,Wunderground v.1.15,2013-07-11 04:02:00,
2013-07-10 23:04:00,80.7,70.4,29.94,South,180,6.0,12.0,71,0.00,,,0.00,Wunderground v.1.15,2013-07-11 04:04:00,
2013-07-10 23:08:00,80.7,70.4,29.94,SE,145,6.0,12.0,71,0.00,,,0.00,Wunderground v.1.15,2013-07-11 04:08:00,
2013-07-10 23:14:00,80.5,70.6,29.95,ESE,120,6.0,12.0,72,0.00,,,0.00,Wunderground v.1.15,2013-07-11 04:14:00,
2013-07-10 23:20:00,80.3,70.4,29.95,SE,138,5.0,12.0,72,0.00,,,0.00,Wunderground v.1.15,2013-07-11 04:20:00,
2013-07-10 23:24:00,80.2,70.4,29.95,SE,125,5.0,12.0,72,0.00,,,0.00,Wunderground v.1.15,2013-07-11 04:24:00,
2013-07-10 23:30:00,79.9,70.5,29.95,SSE,149,5.0,12.0,73,0.00,,,0.00,Wunderground v.1.15,2013-07-11 04:30:00,
2013-07-10 23:36:00,79.8,70.4,29.95,SSE,155,6.0,12.0,73,0.00,,,0.00,Wunderground v.1.15,2013-07-11 04:36:00,
2013-07-10 23:42:00,79.8,70.0,29.95,SSE,167,7.0,8.0,72,0.00,,,0.00,Wunderground v.1.15,2013-07-11 04:42:00,
2013-07-10 23:48:00,79.7,69.9,29.95,SE,132,7.0,12.0,72,0.00,,,0.00,Wunderground v.1.15,2013-07-11 04:48:00,
2013-07-10 23:54:00,79.6,69.8,29.95,SE,135,7.0,12.0,72,0.00,,,0.00,Wunderground v.1.15,2013-07-11 04:54:00,